Flag for Romania Weather past 2 weeks in Brăila, Romania

Now
59 °F

Passing clouds.


Feels Like: 59 °F
Forecast: 45 / 76 °F
Wind: 1 mph from West

Location: Galati

Current Time: Sep 19, 2014 at 9:54:28 PM

Latest Report: Sep 19, 2014 at 9:00 PM


Visibility: 13 mi

Pressure: 30.22 "Hg

Humidity: 44%

Dew point: 37 °F

Location of BrăilaLocation

Historic Weather in Brăila — Graph

°F

Brăila temperature yesterday

Maximum temperature yesterday: 75 °F (at 3:00 PM)
Minimum temperature yesterday: 55 °F (at 8:00 AM)
Average temperature yesterday: 64 °F

Past Weeks' High & Low Weather Summary

 TemperatureHumidityPressure
High86 °F (Sep 9, 4:00 PM)98% (Sep 12, 3:00 AM)30.28 "Hg (Sep 12, 3:00 AM)
Low49 °F (Sep 19, 8:00 AM)18% (Sep 19, 6:00 PM)29.87 "Hg (Sep 6, 7:00 PM)
Average70 °F52%30.03 "Hg
* Reported Sep 4 8:00 PM — Sep 19 8:00 PM, Brăila, Weather by CustomWeather, © 2014

Note: Actual official high and low records may vary slightly from our data, if they occured in-between our weather recording intervals... More about our weather records

Advertising

Brăila weather history for previous 24 hours

 ConditionsComfort  
Time TempWeatherWind HumidityBarometerVisibility
8:00 PM
Sep 19
62 °FPassing clouds.1 mph39%30.21 "Hg12 mi
7:00 PM70 °FPassing clouds.1 mph23%30.21 "Hg12 mi
6:00 PM75 °FPassing clouds.1 mph18%30.21 "Hg12 mi
5:00 PM75 °FSunny.1 mph19%30.21 "Hg12 mi
4:00 PM74 °FSunny.1 mph19%30.22 "Hg12 mi
3:00 PM73 °FSunny.1 mph21%30.23 "Hg12 mi
2:00 PM73 °FSunny.1 mph21%30.24 "Hg12 mi
1:00 PM71 °FSunny.2 mph23%30.26 "Hg12 mi
12:00 PM68 °FSunny.2 mph27%30.28 "Hg12 mi
11:00 AM64 °FSunny.3 mph35%30.28 "Hg12 mi
10:00 AM57 °FSunny.3 mph47%30.28 "Hg12 mi
9:00 AM55 °FSunny.2 mph51%30.27 "Hg12 mi
8:00 AM49 °FSunny.2 mph61%30.26 "Hg12 mi
7:00 AM50 °FSunny.2 mph57%30.25 "Hg12 mi
6:00 AM54 °FClear.2 mph50%30.24 "Hg12 mi
5:00 AM54 °FClear.2 mph52%30.24 "Hg12 mi
4:00 AM53 °FClear.3 mph58%30.24 "Hg12 mi
3:00 AM57 °FClear.3 mph49%30.24 "Hg12 mi
2:00 AM56 °FClear.2 mph56%30.24 "Hg12 mi
1:00 AM55 °FClear.1 mph69%30.24 "Hg12 mi
12:00 AM56 °FClear.1 mph75%30.24 "Hg12 mi
11:00 PM
Sep 18
58 °FClear.No wind67%30.24 "Hg12 mi
10:00 PM60 °FPassing clouds.1 mph59%30.23 "Hg12 mi
9:00 PM62 °FPassing clouds.1 mph56%30.22 "Hg12 mi
Weather by CustomWeather, © 2014

See weather overviewHow to use our weather pages